Regional Weather Roundup
Issued by NWS Newport/Morehead, NC

Current Version | Previous Version | Graphics & Text | Print | Product List | Glossary On
Versions: 1 2 3 4 5 6 7 8 9 10 11 12 13 14 15 16 17 18 19 20 21 22 23 24 25 26 27 28 29 30 31 32 33 34 35 36 37 38 39 40 41 42 43 44 45 46 47 48 49 50
000 ASUS42 KMHX 291225 RWRMHX WEATHER ROUNDUP FOR EASTERN NORTH CAROLINA NATIONAL WEATHER SERVICE NEWPORT/MOREHEAD CITY NC 800 AM EDT SUN MAY 29 2016 NOTE: "FAIR" INDICATES FEW OR NO CLOUDS BELOW 12,000 FEET WITH NO SIGNIFICANT WEATHER AND/OR OBSTRUCTIONS TO VISIBILITY NCZ015>017-031-032-045>047-102-103-291300- NORTH COAST CITY SKY/WX TMP DP RH WIND PRES REMARKS EDENTON NOT AVBL ELIZABETH CITY SUNNY 75 72 90 E6 30.12S KITTY HAWK MOSUNNY 75 72 89 SE5 30.12R MANTEO NOT AVBL $$ NCZ045>047-081-094-103-104-291300- CENTRAL COAST CITY SKY/WX TMP DP RH WIND PRES REMARKS FRISCO LGT RAIN 75 73 93 S8 30.11R FOG $$ NCZ095-097-098-100-101-291300- SOUTHERN COAST CITY SKY/WX TMP DP RH WIND PRES REMARKS BEAUFORT HVY RAIN 73 72 96 SE6G17 30.08R VSB 3/4 CEDAR ISLAND NOT AVBL JACKSONVILLE CLOUDY 75 72 90 E10 30.05S PINEY ISLAND CLOUDY N/A N/A N/A SE9 30.08 WILMINGTON CLOUDY 74 73 97 E6 30.03S $$ NCZ011>013-027>030-043-044-078>080-089-090>093-098-291300- COASTAL PLAIN CITY SKY/WX TMP DP RH WIND PRES REMARKS AHOSKIE PTSUNNY 69 68 97 NE3 30.12S CLINTON CLOUDY 73 73 100 NE5 30.06S ELIZABETHTOWN RAIN 73 73 100 CALM 30.04R GOLDSBORO CLOUDY 73 73 100 NE9 30.06S GREENVILLE DRIZZLE 72 72 100 E5 30.11R HAVELOCK LGT RAIN 73 71 93 SE8 30.08S VSB 1 KENANSVILLE CLOUDY 72 72 98 CALM 30.07S KINSTON CLOUDY 73 72 94 NE9 30.09R NEW BERN HVY RAIN 72 70 93 E5 30.10R FOG RICHLANDS LGT RAIN 74 73 97 NE8 30.05F ROCKY MOUNT CLOUDY 72 71 97 NE6 30.10S WASHINGTON RAIN 72 71 98 NE5 30.09S WHITEVILLE CLOUDY 73 71 95 NE3 30.02R $$ AMZ130-135-150-152-154-156-158-170-250-252-270-ANZ085-086-088-633-658-670-291300- MARINE OBSERVATIONS STATION/POSITION TIME TEMP WIND PRES WAVE SWELL AIR SEA DIR/SP/G HT/PER HT/PER (UTC) (F) (DEG/KT/KT) (MB) (FT/S) (FT/S) CHESAPEAKE LIGHT 1200 70 100/ 11/ 11 1021.0 64 E VA BEACH 1150 71 64 90/ 4/ 6 1020.5 3/ 8 3/ 8 DUCK 1200 71 64 90/ 5/ 7 1019.5 2 E DUCK 1141 68 N/A 2/ 5 OREGON INLET 1200 75 70 110/ 6/ 8 1019.7 13E OREGON INLT 1200 70 N/A 4/ 8 3/ 8 HATTERAS CG 1200 75 77 120/ 12/ 15 1018.8 DIAMOND BUOY 1150 78 76 140/ 21/ 25 1018.6 5/ 8 2/14 CAPE LOOKOUT 1200 75 200/ 5/ 8 1017.9 BEAUFORT LAB 1200 74 74 150/ 7/ 8 1017.6 30 SE NEW RVR IN 1155 75 N/A 6/ 7 27 SE WRIGHTSVLE 1208 79 75 170/ 14/ 19 1016.4 5 SE WRIGHTSVLE 1208 76 74 140/ 8/ 12 1017.3 225 S CAPE HAT 1150 76 75 120/ 12/ 14 1019.0 4/ 7 3/ 7 41 SE CHARLESTON 1150 77 78 180/ 19/ 21 1012.0 8/ 8 $$

USA.gov is the U.S. government's official web portal to all federal, state and local government web resources and services.